Flag for Cambodia Weather past 2 weeks in Battambang, Cambodia

Now
82 °F

Passing clouds.


Feels Like: 91 °F
Forecast: 76 / 92 °F
Wind: 6 mph from West

Location: Siemreap

Current Time: Sep 18, 2014 at 9:46:30 PM

Latest Report: Sep 18, 2014 at 9:00 PM


Visibility: 6 mi

Pressure: 29.83 "Hg

Humidity: 84%

Dew point: 77 °F

Location of BattambangLocation

Historic Weather in Battambang — Graph

°F

Battambang temperature yesterday

Maximum temperature yesterday: 86 °F (at 12:30 PM)
Minimum temperature yesterday: 81 °F (at 7:00 AM)
Average temperature yesterday: 83 °F

Past Weeks' High & Low Weather Summary

 TemperatureHumidityPressure
High91 °F (Sep 8, 3:30 PM)94% (Sep 5, 7:30 AM)29.83 "Hg (Sep 5, 7:30 AM)
Low73 °F (Sep 5, 7:30 AM)55% (Sep 4, 5:00 PM)29.53 "Hg (Sep 16, 1:30 PM)
Average83 °F77%29.71 "Hg
* Reported Sep 3 8:00 PM — Sep 18 8:30 PM, Battambang, Weather by CustomWeather, © 2014

Note: Actual official high and low records may vary slightly from our data, if they occured in-between our weather recording intervals... More about our weather records

Advertising

Battambang weather history for previous 24 hours

 ConditionsComfort  
Time TempWeatherWind HumidityBarometerVisibility
8:30 PM
Sep 18
84 °FPassing clouds.6 mph79%29.83 "Hg6 mi
8:00 PM86 °FPassing clouds.3 mph75%29.80 "Hg6 mi
7:30 PM86 °FPassing clouds.2 mph75%29.80 "Hg6 mi
7:00 PM86 °FPassing clouds.2 mph70%29.80 "Hg6 mi
5:30 PM88 °FPassing clouds.3 mph62%29.74 "HgN/A
5:00 PM88 °FPassing clouds.6 mph62%29.74 "HgN/A
4:30 PM90 °FScattered clouds.7 mph55%29.74 "HgN/A
4:00 PM90 °FScattered clouds.7 mph55%29.74 "HgN/A
3:30 PM90 °FScattered clouds.8 mph55%29.74 "HgN/A
3:00 PM90 °FScattered clouds.8 mph59%29.74 "HgN/A
2:30 PM90 °FScattered clouds.7 mph59%29.77 "HgN/A
1:30 PM88 °FScattered clouds.5 mph62%29.77 "HgN/A
1:00 PM88 °FScattered clouds.8 mph62%29.77 "HgN/A
12:30 PM88 °FScattered clouds.7 mph62%29.80 "HgN/A
11:30 AM88 °FScattered clouds.7 mph62%29.83 "HgN/A
11:00 AM88 °FScattered clouds.5 mph62%29.83 "HgN/A
10:30 AM86 °FScattered clouds.7 mph66%29.83 "HgN/A
9:30 AM84 °FScattered clouds.7 mph70%29.83 "HgN/A
9:00 AM84 °FScattered clouds.6 mph70%29.83 "HgN/A
8:30 AM84 °FScattered clouds.8 mph70%29.83 "HgN/A
8:00 AM82 °FScattered clouds.5 mph74%29.83 "HgN/A
7:30 AM82 °FScattered clouds.5 mph74%29.83 "HgN/A
7:00 AM82 °FScattered clouds.2 mph79%29.80 "HgN/A
1:00 AM81 °FPassing clouds.1 mph84%29.80 "Hg6 mi
12:30 AM81 °FPassing clouds.1 mph84%29.80 "Hg6 mi
12:00 AM81 °FPassing clouds.1 mph84%29.80 "Hg6 mi
11:30 PM
Sep 17
81 °FPassing clouds.1 mph84%29.80 "Hg6 mi
10:03 PM81 °FPassing clouds.5 mph79%29.80 "Hg6 mi
10:00 PM81 °FPassing clouds.13 mph79%29.80 "Hg6 mi
9:30 PM82 °FPassing clouds.13 mph74%29.80 "Hg6 mi
9:00 PM82 °FPassing clouds.13 mph74%29.77 "Hg6 mi
Weather by CustomWeather, © 2014

See weather overviewHow to use our weather pages